Home > Weather > Urbana > Past weeks

Flag for USA Past Weather in Urbana, Illinois, USA — Yesterday and Last 2 Weeks

Now
76 °F

Scattered clouds.


Feels Like: 77 °F
Forecast: 65 / 81 °F
Wind: 6 mph from West

Location: University Of Illinois-Willard Airport

Current Time: Jul 30, 2016 at 1:56:50 PM

Latest Report: Jul 30, 2016 at 1:00 PM


Visibility: 10 mi

Pressure: 29.99 "Hg

Humidity: 77%

Dew Point: 68 °F

Location of UrbanaLocation

Past Weather in Urbana — Graph

°F

Urbana Temperature Yesterday

Maximum temperature yesterday: 82 °F (at 2:00 PM)
Minimum temperature yesterday: 66 °F (at 5:58 AM)
Average temperature yesterday: 74 °F

High & Low Weather Summary for the Past Weeks

 TemperatureHumidityPressure
High90 °F (Jul 24, 2:53 PM)97% (Jul 19, 1:53 AM)30.24 "Hg (Jul 19, 1:53 AM)
Low63 °F (Jul 16, 4:53 AM)52% (Jul 15, 4:53 PM)29.85 "Hg (Jul 28, 2:53 PM)
Average76 °F82%30.03 "Hg
* Reported Jul 15 11:53 AM — Jul 30 11:53 AM, Urbana, Weather by CustomWeather, © 2016

Note: Actual official high and low records may vary slightly from our data, if they occured in-between our weather recording intervals... More about our weather records

Advertising

Urbana Weather History for the Previous 24 Hours

Scroll right to see more
 ConditionsComfort  
Time TempWeatherWind HumidityBarometerVisibility
11:53 AM
Sat, Jul 30
74 °FPartly sunny.7 mph82%29.98 "Hg9 mi
10:53 AM74 °FMostly cloudy.12 mph85%29.97 "Hg10 mi
9:53 AM73 °FPartly sunny.7 mph84%29.97 "Hg10 mi
8:53 AM72 °FPartly sunny.7 mph87%29.96 "Hg10 mi
7:53 AM69 °FSunny.6 mph90%29.96 "Hg10 mi
6:53 AM65 °FSunny.5 mph97%29.95 "Hg7 mi
5:53 AM63 °FFog.3 mph97%29.93 "Hg3 mi
4:53 AM64 °FClear.5 mph97%29.92 "Hg7 mi
3:53 AM64 °FFog.3 mph97%29.91 "Hg6 mi
2:53 AM64 °FFog.3 mph97%29.91 "Hg6 mi
1:53 AM66 °FClear.3 mph93%29.91 "Hg9 mi
12:53 AM67 °FClear.5 mph93%29.91 "Hg10 mi
11:53 PM
Fri, Jul 29
67 °FPassing clouds.6 mph93%29.91 "Hg10 mi
10:53 PM69 °FPassing clouds.6 mph90%29.91 "Hg10 mi
9:53 PM71 °FPassing clouds.5 mph87%29.92 "Hg10 mi
8:53 PM73 °FPartly sunny.3 mph84%29.91 "Hg10 mi
7:53 PM75 °FSunny.6 mph82%29.90 "Hg10 mi
6:53 PM79 °FPartly sunny.8 mph74%29.90 "Hg10 mi
5:53 PM80 °FSunny.7 mph67%29.90 "Hg10 mi
4:53 PM82 °FSunny.6 mph63%29.90 "Hg10 mi
3:53 PM82 °FScattered clouds.9 mph63%29.89 "Hg10 mi
2:53 PM82 °FScattered clouds.14 mph67%29.89 "Hg10 mi
2:00 PM82 °FPassing clouds.9 mph67%29.93 "Hg10 mi
1:53 PM81 °FPartly sunny.10 mph69%29.91 "Hg10 mi
Weather by CustomWeather, © 2016

See weather overviewHow to use our weather pages